Dothan, AL

8:50 AM CST on February 24, 2017 (GMT -0600)
Dothan Regional

Weather History for KDHN - November, 2013

Change the Weather History Date:

Tuesday, November 26, 2013

  Actual Average Record
Temperature  
Mean Temperature 59 °F 56 °F  
Max Temperature 70 °F 68 °F 83 °F (1967)
Min Temperature 47 °F 44 °F 20 °F (1950)
Degree Days  
Heating Degree Days 6 10  
Month to date heating degree days 173 177  
Since 1 July heating degree days 214 236  
Growing Degree Days 8 (Base 50)    
Moisture  
Dew Point 57 °F    
Average Humidity 96    
Maximum Humidity 100    
Minimum Humidity 90    
Precipitation  
Precipitation 1.66 in 0.17 in 4.01 in (2007)
Month to date precipitation 2.42 3.48  
Year to date precipitation 69.25 48.87  
Sea Level Pressure  
Sea Level Pressure 29.80 in    
Wind  
Wind Speed 11 mph (SE)    
Max Wind Speed 17 mph    
Max Gust Speed 26 mph    
Visibility 6 miles    
Events Rain    
T = Trace of Precipitation, MM = Missing Value Source: NWS Daily Summary

Daily Weather History Graph

Daily Weather History Graph

Search for Another Location

Airport or City:

Trip Planner

Search our weather history database for the weather conditions in past years. The results will help you decide how hot, cold, wet, or windy it might be!

Date:

Astronomy

Nov. 26, 2013 Rise Set
Actual Time 6:18 AM CST 4:39 PM CST
Civil Twilight 5:52 AM CST 5:05 PM CST
Nautical Twilight 5:22 AM CST 5:35 PM CST
Astronomical Twilight 4:53 AM CST 6:04 PM CST
Moon No Moon Rise 12:23 PM CST (11/26)
Length of Visible Light 11h 12m
Length of Day
10h 20m
Last Quarter, 41% of the Moon is Illuminated
Nov 26
Last Quarter
Dec 2
New
Dec 9
First Quarter
Dec 17
Full
Dec 25
Last Quarter

Hourly Weather History & Observations

Time (CST) Temp. Dew Point Humidity Pressure Visibility Wind Dir Wind Speed Gust Speed Precip Events Conditions
12:53 AM 54.0 °F 51.1 °F 90% 30.06 in 6.0 mi ESE 8.1 mph - 0.01 in Rain Light Rain
1:44 AM 53.6 °F 51.8 °F 94% 30.01 in 7.0 mi East 10.4 mph - 0.03 in Rain Light Rain
1:53 AM 54.0 °F 52.0 °F 93% 29.99 in 7.0 mi ESE 10.4 mph - 0.04 in Rain Light Rain
2:09 AM 53.6 °F 53.6 °F 100% 29.99 in 8.0 mi ESE 11.5 mph 18.4 mph 0.00 in Rain Light Rain
2:53 AM 55.0 °F 53.1 °F 93% 29.98 in 7.0 mi ESE 12.7 mph 18.4 mph 0.04 in Rain Light Rain
3:53 AM 55.9 °F 54.0 °F 93% 29.93 in 9.0 mi ESE 11.5 mph - 0.01 in Rain Light Rain
4:07 AM 55.4 °F 55.4 °F 100% 29.91 in 10.0 mi ESE 13.8 mph 21.9 mph 0.00 in Rain Light Rain
4:15 AM 55.4 °F 55.4 °F 100% 29.91 in 10.0 mi ESE 13.8 mph 21.9 mph 0.00 in Rain Light Rain
4:53 AM 57.0 °F 55.9 °F 96% 29.93 in 6.0 mi SE 11.5 mph - 0.05 in Rain Rain
5:53 AM 57.9 °F 57.0 °F 97% 29.90 in 4.0 mi ESE 6.9 mph - 0.14 in Rain Heavy Rain
6:02 AM 57.2 °F 57.2 °F 100% 29.89 in 4.0 mi ESE 12.7 mph - 0.04 in Rain Heavy Rain
6:53 AM 59.0 °F 57.9 °F 96% 29.86 in 3.0 mi ESE 12.7 mph - 0.26 in Rain Heavy Rain
7:35 AM 60.8 °F 59.0 °F 94% 29.84 in 2.0 mi ESE 12.7 mph 18.4 mph 0.17 in Rain Heavy Rain
7:53 AM 61.0 °F 60.1 °F 97% 29.80 in 2.5 mi SE 17.3 mph 25.3 mph 0.25 in Rain Heavy Rain
8:04 AM 62.6 °F 60.8 °F 94% 29.81 in 3.0 mi SE 12.7 mph 25.3 mph 0.04 in Rain Heavy Rain
8:23 AM 62.6 °F 60.8 °F 94% 29.80 in 1.8 mi ESE 13.8 mph 21.9 mph 0.14 in Rain Heavy Rain
8:32 AM 62.6 °F 60.8 °F 94% 29.81 in 3.0 mi SE 11.5 mph 21.9 mph 0.16 in Rain Light Rain
8:39 AM 62.6 °F 62.6 °F 100% 29.82 in 1.8 mi SSE 12.7 mph 21.9 mph 0.22 in Rain Heavy Rain
8:53 AM 63.0 °F 62.1 °F 97% 29.80 in 2.5 mi SE 15.0 mph - 0.28 in Rain Light Rain
9:53 AM 64.9 °F 63.0 °F 93% 29.78 in 10.0 mi SE 13.8 mph - 0.01 in   Overcast
10:53 AM 64.9 °F 64.0 °F 97% 29.74 in 1.0 mi SSE 15.0 mph - 0.10 in Rain Heavy Rain
11:03 AM 64.4 °F 64.4 °F 100% 29.76 in 1.0 mi South 13.8 mph - 0.04 in Rain Rain
11:12 AM 64.4 °F 64.4 °F 100% 29.74 in 1.0 mi SSE 12.7 mph - 0.25 in Rain Heavy Rain
11:38 AM 64.4 °F 64.4 °F 100% 29.72 in 10.0 mi SSE 10.4 mph - 0.27 in Rain Light Rain
11:53 AM 66.0 °F 64.9 °F 96% 29.71 in 10.0 mi South 12.7 mph - 0.27 in Rain Light Rain
12:05 PM 66.2 °F 64.4 °F 94% 29.70 in 2.0 mi South 16.1 mph 21.9 mph 0.09 in Rain Rain
12:13 PM 66.2 °F 64.4 °F 94% 29.69 in 2.0 mi South 10.4 mph - 0.11 in Rain Light Rain
12:20 PM 66.2 °F 64.4 °F 94% 29.69 in 10.0 mi SSE 9.2 mph - 0.11 in Rain Light Rain
12:30 PM 66.2 °F 66.2 °F 100% 29.68 in 10.0 mi South 8.1 mph - 0.11 in   Overcast
12:53 PM 69.1 °F 66.9 °F 93% 29.66 in 10.0 mi South 9.2 mph - 0.11 in   Overcast
1:45 PM 69.8 °F 68.0 °F 94% 29.66 in 10.0 mi SSW 11.5 mph - 0.02 in   Overcast
1:53 PM 70.0 °F 68.0 °F 93% 29.65 in 10.0 mi SSW 9.2 mph - 0.02 in   Overcast
2:53 PM 57.9 °F 57.0 °F 97% 29.66 in 9.0 mi NW 17.3 mph 26.5 mph 0.00 in Rain Light Rain
3:01 PM 55.4 °F 55.4 °F 100% 29.68 in 8.0 mi NW 16.1 mph - 0.00 in Rain Light Rain
3:53 PM 50.0 °F 48.9 °F 96% 29.71 in 10.0 mi NW 16.1 mph - 0.00 in   Overcast
4:53 PM 48.0 °F 46.9 °F 96% 29.73 in 4.0 mi NW 10.4 mph - 0.00 in Rain Light Rain
5:53 PM 48.0 °F 46.9 °F 96% 29.74 in 10.0 mi NW 11.5 mph - 0.02 in Rain Light Rain
6:53 PM 46.9 °F 46.0 °F 97% 29.77 in 10.0 mi NNW 10.4 mph - 0.01 in Rain Light Rain
7:53 PM 48.0 °F 46.0 °F 93% 29.77 in 10.0 mi NNW 8.1 mph - 0.00 in Rain Light Rain
8:53 PM 48.0 °F 46.9 °F 96% 29.76 in 8.0 mi NW 6.9 mph - 0.04 in Rain Light Rain
9:53 PM 48.9 °F 46.9 °F 93% 29.76 in 10.0 mi NW 11.5 mph - 0.00 in   Overcast
10:02 PM 48.2 °F 48.2 °F 100% 29.77 in 10.0 mi NW 10.4 mph - N/A   Overcast
10:53 PM 48.9 °F 48.0 °F 97% 29.78 in 5.0 mi WNW 6.9 mph - 0.00 in Rain Light Rain
11:53 PM 48.9 °F 48.0 °F 97% 29.79 in 3.0 mi WNW 13.8 mph - 0.00 in Rain Light Rain
11:56 PM 48.2 °F 48.2 °F 100% 29.79 in 2.5 mi WNW 12.7 mph - 0.00 in Rain Light Rain